EW4423 Weather Reports


Display with metric or nautical units.
time (UTC)temp
F
wind
direction
speed
MPH
gust
MPH
rain 1hr
in
rain 24hr
in
rain mn
in
humidity
%
barometer
mb
20220627113037 72 44 3.0 5.0 0.00 0.00 0.00 88 1020.0
20220627111535 72 31 1.0 3.0 0.00 0.00 0.00 88 1019.9
20220627110033 73 34 2.0 4.0 0.00 0.00 0.00 87 1019.8
20220627104528 73 55 2.0 4.0 0.00 0.00 0.00 87 1019.6
20220627103023 73 63 2.0 7.0 0.00 0.00 0.00 87 1019.4
20220627101519 0 0.0 0.0 0.00 0.00 0.00
20220627030003 88 100 12.0 21.0 0.00 0.00 0.00 58 1018.1
20220627024502 89 63 11.0 19.0 0.00 0.00 0.00 53 1017.6
20220627023002 90 24 4.0 8.0 0.00 0.00 0.00 49 1016.9
20220627021502 91 40 5.0 9.0 0.00 0.00 0.00 47 1016.8
20220627020003 92 5 6.0 11.0 0.00 0.00 0.00 46 1016.5
20220627014601 93 24 4.0 10.0 0.00 0.00 0.00 43 1016.2
20220627013101 94 27 4.0 7.0 0.00 0.00 0.00 42 1015.8
20220627011559 95 38 2.0 4.0 0.00 0.00 0.00 40 1015.5
20220627010059 96 32 3.0 6.0 0.00 0.00 0.00 38 1015.2
20220627004558 97 355 2.0 6.0 0.00 0.00 0.00 37 1015.1
20220627003058 97 355 4.0 9.0 0.00 0.00 0.00 35 1015.1
20220627001555 98 23 7.0 13.0 0.00 0.00 0.00 34 1015.2
20220627000106 99 53 6.0 12.0 0.00 0.00 0.00 33 1015.2
20220626234555 100 45 5.0 11.0 0.00 0.00 0.00 33 1015.1
20220626233055 100 88 7.0 12.0 0.00 0.00 0.00 31 1015.0
20220626231555 101 30 7.0 12.0 0.00 0.00 0.00 31 1014.8
20220626230053 102 56 5.0 12.0 0.00 0.00 0.00 31 1014.7
20220626224552 102 360 4.0 13.0 0.00 0.00 0.00 30 1014.7
20220626223050 102 74 3.0 12.0 0.00 0.00 0.00 29 1014.6
20220626221547 103 44 3.0 10.0 0.00 0.00 0.00 29 1014.6
20220626220045 103 350 5.0 13.0 0.00 0.00 0.00 28 1014.6
20220626214540 103 38 6.0 12.0 0.00 0.00 0.00 28 1014.8
20220626213038 103 355 7.0 12.0 0.00 0.00 0.00 29 1015.0
20220626211536 103 11 4.0 14.0 0.00 0.00 0.00 29 1015.0
20220626210027 103 341 6.0 12.0 0.00 0.00 0.00 29 1015.1
20220626204523 103 28 2.0 8.0 0.00 0.00 0.00 29 1015.2
20220626203019 102 171 2.0 9.0 0.00 0.00 0.00 29 1015.3
20220626201527 102 273 4.0 10.0 0.00 0.00 0.00 30 1015.5
20220626200016 102 284 2.0 10.0 0.00 0.00 0.00 29 1015.7
20220626194512 102 86 3.0 6.0 0.00 0.00 0.00 29 1016.0
20220626193005 102 360 3.0 12.0 0.00 0.00 0.00 30 1016.2
20220626191602 102 60 6.0 13.0 0.00 0.00 0.00 29 1016.3
20220626190057 101 10 3.0 11.0 0.00 0.00 0.00 31 1016.5
20220626184555 101 300 3.0 11.0 0.00 0.00 0.00 31 1016.7
20220626183057 100 328 6.0 10.0 0.00 0.00 0.00 32 1016.9
20220626181551 100 60 4.0 10.0 0.00 0.00 0.00 33 1017.1
20220626180048 99 80 2.0 12.0 0.00 0.00 0.00 34 1017.2
20220626174556 99 346 2.0 11.0 0.00 0.00 0.00 36 1017.4
20220626173041 98 13 5.0 14.0 0.00 0.00 0.00 36 1017.6
20220626171538 98 298 7.0 13.0 0.00 0.00 0.00 37 1017.6
20220626170042 98 51 3.0 10.0 0.00 0.00 0.00 37 1017.7
20220626164533 96 323 3.0 10.0 0.00 0.00 0.00 39 1017.9
20220626163031 95 321 5.0 15.0 0.00 0.00 0.00 42 1018.0
20220626161533 95 331 5.0 11.0 0.00 0.00 0.00 41 1018.1
20220626160025 94 300 4.0 13.0 0.00 0.00 0.00 43 1018.1
20220626154521 92 308 6.0 17.0 0.00 0.00 0.00 45 1018.1
20220626153022 91 45 6.0 13.0 0.00 0.00 0.00 47 1018.1
20220626151513 89 296 3.0 12.0 0.00 0.00 0.00 52 1018.2
20220626150109 87 288 5.0 9.0 0.00 0.00 0.00 57 1018.2
20220626144506 85 241 1.0 8.0 0.00 0.00 0.00 59 1018.3
20220626143004 85 265 4.0 10.0 0.00 0.00 0.00 59 1018.2
20220626141502 84 283 5.0 10.0 0.00 0.00 0.00 60 1018.2
20220626140057 83 267 4.0 9.0 0.00 0.00 0.00 64 1018.2
20220626134553 82 268 2.0 7.0 0.00 0.00 0.00 68 1018.2
20220626133050 80 267 4.0 9.0 0.00 0.00 0.00 70 1017.8
20220626131558 78 286 3.0 7.0 0.00 0.00 0.00 73 1017.5
20220626130044 77 240 1.0 4.0 0.00 0.00 0.00 74 1017.3
20220626124543 75 235 1.0 3.0 0.00 0.00 0.00 75 1017.2
20220626123041 74 265 1.0 4.0 0.00 0.00 0.00 74 1016.9
20220626121538 74 227 0.0 4.0 0.00 0.00 0.00 75 1016.8
20220626120038 74 219 3.0 4.0 0.00 0.00 0.00 73 1016.6